[[{"header":{"parameterUnit":"m.s-1","parameterCategory":1,"la1":30.2991,"la2":30.254,"lo1":-89.0895,"lo2":-89.0444,"dy":0.0017,"dx":0.0017,"nx":28,"ny":28,"refTime":"2025-04-18T03:00:00:Z","depth":0,"parameterNumber":2,"parameterNumberName":"U-component_of_WINDS"},"data":[0,0,0,0,0,0,0,0,0,0,0,0,0,0,0,0,0,0,0,0,0,0,0,0,0,0,0,0,0,0,0,0,0,0,0,0,0,0,0,0,0,0,0,0,0,0,0,0,0,0,0,0,0,0,0,0,0,0,-4.7691,-4.7691,0,-4.7675,-4.7675,-4.7674,-4.76,-4.7599,-4.7597,-4.7595,-4.7579,-4.758,-4.7581,0,0,0,0,0,0,0,0,0,0,0,0,0,-4.766,-4.7661,-4.7691,-4.7691,-4.769,-4.7675,-4.7675,-4.7674,-4.7601,-4.7599,-4.7596,-4.7594,-4.7579,-4.758,-4.7582,0,0,0,0,0,0,0,0,0,0,0,0,0,-4.7661,-4.7661,-4.7691,-4.7652,-4.7648,-4.7675,-4.7675,-4.7674,-4.7601,-4.7598,-4.7596,-4.7593,-4.7578,-4.758,-4.7582,-4.7645,0,0,-4.7587,-4.7588,0,0,0,0,0,0,0,0,-4.7661,-4.7663,-4.7658,-4.7654,-4.765,-4.7637,-4.7658,-4.7664,-4.7602,-4.7619,-4.7595,-4.7592,-4.7601,-4.76,-4.7603,-4.7644,-4.7643,-4.7587,-4.7588,-4.7589,-4.759,0,0,0,0,0,0,0,-4.7661,-4.7663,-4.7684,-4.7658,-4.7653,-4.7636,-4.7633,-4.7659,-4.7625,-4.7617,-4.7612,-4.7611,-4.7598,-4.7601,-4.7602,-4.7643,-4.7587,-4.7589,-4.759,-4.7591,-4.7736,-4.7739,0,0,0,0,0,0,-4.7667,-4.7663,-4.7685,-4.7684,-4.765,-4.7638,-4.7635,-4.7644,-4.7624,-4.7618,-4.7613,-4.7608,-4.76,-4.76,-4.7601,-4.7673,-4.7589,-4.7591,-4.7592,-4.7733,-4.7737,-4.774,0,0,0,0,0,0,-4.7666,-4.7669,-4.7685,-4.7672,-4.7673,-4.7642,-4.7652,-4.7645,-4.7648,-4.7621,-4.7615,-4.7623,-4.7598,-4.7599,-4.7635,-4.7671,-4.7592,-4.7593,-4.773,-4.7734,-4.7738,-4.7817,0,0,0,0,0,0,-4.7666,-4.7669,-4.7692,-4.7673,-4.7674,-4.7719,-4.7654,-4.7646,-4.7651,-4.7644,-4.7628,-4.7623,-4.7596,-4.7632,-4.7636,-4.7672,-4.7595,-4.7726,-4.7732,-4.7737,-4.7811,-4.7823,-4.7834,0,0,0,0,0,-4.7665,-4.7715,-4.7694,-4.7697,-4.7702,-4.7721,-4.7721,-4.7688,-4.7655,-4.7677,-4.7661,-4.7624,-4.7668,-4.7637,-4.7641,-4.7677,-4.7724,-4.773,-4.7736,-4.7806,-4.7821,-4.7834,0,0,0,0,0,0,-4.7738,-4.7712,-4.7688,-4.7733,-4.773,-4.7708,-4.7736,-4.7706,-4.7711,-4.7704,-4.7664,-4.7661,-4.7703,-4.7694,-4.766,-4.7738,-4.769,-4.7697,-4.7741,-4.7755,-4.7766,-4.7766,-4.7596,0,0,0,0,0,-4.776,-4.7778,-4.7754,-4.7796,-4.7796,-4.7767,-4.7774,-4.7749,-4.7744,-4.7742,-4.7728,-4.7724,-4.7737,-4.7746,-4.7757,-4.7811,-4.7806,-4.7839,-4.785,-4.786,-4.7865,-4.7893,-4.7906,-4.776,-4.776,-4.776,0,0,-4.7804,-4.7792,-4.7805,-4.7811,-4.7805,-4.7824,-4.7766,-4.7788,-4.7802,-4.7746,-4.7777,-4.7768,-4.7762,-4.7807,-4.7826,-4.7801,-4.7906,-4.7868,-4.7876,-4.7876,-4.7901,-4.7914,-4.7927,-4.7765,-4.7764,-4.7763,0,0,-4.7894,-4.7888,-4.7922,-4.7918,-4.7911,-4.7892,-4.7901,-4.7885,-4.7876,-4.7908,-4.7866,-4.7883,-4.7907,-4.7904,-4.7905,-4.7999,-4.7965,-4.8004,-4.8062,-4.809,-4.8101,-4.8111,-4.8142,-4.8154,-4.8011,-4.8011,-4.8011,0,-4.7949,-4.7976,-4.7943,-4.7969,-4.7972,-4.7924,-4.7959,-4.7957,-4.7954,-4.7958,-4.7931,-4.796,-4.7953,-4.7996,-4.8019,-4.8023,-4.8031,-4.8003,-4.8102,-4.8112,-4.8121,-4.815,-4.8162,-4.8015,-4.8015,-4.8014,-4.8014,0,-4.8044,-4.8064,-4.8093,-4.8091,-4.8099,-4.8129,-4.8101,-4.8114,-4.809,-4.8074,-4.8108,-4.8099,-4.8106,-4.8116,-4.8093,-4.8157,-4.8141,-4.811,-4.8059,-4.814,-4.8166,-4.8178,-4.8022,-4.802,-4.8019,-4.8018,0,0,-4.8174,-4.8157,-4.8168,-4.8167,-4.8158,-4.8172,-4.8202,-4.821,-4.822,-4.8222,-4.8244,-4.8267,-4.8238,-4.824,-4.8217,-4.8242,-4.8314,-4.8206,-4.8205,-4.8224,-4.8382,-4.8404,-4.8417,-4.8294,-4.8296,-4.8298,-4.8382,0,-4.8258,-4.8305,-4.8278,-4.8329,-4.8347,-4.8304,-4.833,-4.8327,-4.8315,-4.8328,-4.8315,-4.833,-4.8292,-4.8293,-4.8315,-4.8301,-4.8345,-4.8295,-4.8313,-4.8314,-4.8311,-4.8432,-4.8454,-4.8533,-4.8392,-4.8394,-4.8396,0,-4.836,-4.8366,-4.8419,-4.8408,-4.8414,-4.8437,-4.8443,-4.8457,-4.8455,-4.8444,-4.8448,-4.842,-4.8448,-4.8403,-4.8441,-4.8408,-4.8415,-4.8409,-4.8411,-4.8408,-4.8356,-4.8429,-4.8558,-4.8569,-4.8412,-4.8411,-4.841,0,-4.8446,-4.8468,-4.8503,-4.8504,-4.8492,-4.8509,-4.8505,-4.85,-4.8507,-4.8514,-4.8518,-4.8528,-4.8532,-4.854,-4.8516,-4.8485,-4.8557,-4.851,-4.8548,-4.8548,-4.856,-4.8559,-4.869,-4.8572,-4.8572,-4.8572,-4.8571,0,-4.854,-4.8573,-4.8541,-4.8562,-4.8599,-4.857,-4.8607,-4.8599,-4.8595,-4.8614,-4.8579,-4.8598,-4.8566,-4.8582,-4.8564,-4.8597,-4.86,-4.8592,-4.8585,-4.8592,-4.8593,-4.8593,-4.8585,-4.8575,-4.8574,-4.8573,-4.8573,0,-4.864,-4.862,-4.8654,-4.8642,-4.864,-4.8667,-4.8657,-4.8676,-4.8663,-4.8687,-4.8691,-4.867,-4.8687,-4.8665,-4.868,-4.8667,-4.8713,-4.87,-4.8713,-4.8708,-4.8746,-4.8741,-4.8877,-4.8893,-4.8769,-4.877,-4.8771,0,-4.8698,-4.8723,-4.8714,-4.8725,-4.8723,-4.874,-4.8748,-4.8721,-4.8731,-4.8731,-4.875,-4.8765,-4.8773,-4.8803,-4.8789,-4.88,-4.8786,-4.8833,-4.8787,-4.8793,-4.8783,-4.878,-4.8781,-4.8841,-4.8842,-4.8843,-4.8844,0,-4.8804,-4.8794,-4.8806,-4.8816,-4.8826,-4.8832,-4.8836,-4.8847,-4.8819,-4.8832,-4.8849,-4.8857,-4.8873,-4.8886,-4.8895,-4.8891,-4.8863,-4.886,-4.8869,-4.8873,-4.8879,-4.8874,-4.8735,-4.8855,-4.8854,-4.8854,-4.8853,-4.8853,-4.8883,-4.8903,-4.89,-4.8915,-4.8916,-4.8921,-4.8938,-4.8928,-4.8942,-4.8953,-4.8938,-4.8959,-4.8957,-4.8966,-4.8966,-4.8982,-4.8961,-4.8975,-4.8977,-4.898,-4.8985,-4.888,-4.8984,-4.8983,-4.8983,-4.8983,-4.8983,0,-4.8984,-4.8981,-4.8996,-4.9002,-4.9015,-4.8991,-4.8994,-4.9006,-4.9025,-4.9026,-4.9037,-4.9057,-4.9072,-4.9061,-4.9073,-4.9088,-4.9075,-4.9092,-4.9088,-4.9087,-4.9004,-4.8993,-4.9102,-4.9102,-4.9102,-4.9101,-4.9101,-4.9101,-4.9037,-4.907,-4.906,-4.9094,-4.9091,-4.9111,-4.9115,-4.912,-4.9121,-4.9145,-4.9157,-4.9151,-4.9147,-4.9159,-4.9171,-4.9168,-4.9173,-4.9193,-4.9185,-4.9105,-4.9093,-4.9082,-4.9072,-4.9195,-4.9195,-4.9266,-4.9267,-4.9268]},{"header":{"parameterUnit":"m.s-1","parameterCategory":1,"la1":30.2991,"la2":30.254,"lo1":-89.0895,"lo2":-89.0444,"dy":0.0017,"dx":0.0017,"nx":28,"ny":28,"refTime":"2025-04-18T03:00:00:Z","depth":0,"parameterNumber":3,"parameterNumberName":"V-component_of_WINDS"},"data":[0,0,0,0,0,0,0,0,0,0,0,0,0,0,0,0,0,0,0,0,0,0,0,0,0,0,0,0,0,0,0,0,0,0,0,0,0,0,0,0,0,0,0,0,0,0,0,0,0,0,0,0,0,0,0,0,0,0,3.6455,3.6456,0,3.6527,3.6528,3.6529,3.6596,3.6596,3.6597,3.6598,3.6668,3.6669,3.667,0,0,0,0,0,0,0,0,0,0,0,0,0,3.6374,3.6375,3.6455,3.6456,3.6457,3.6527,3.6528,3.6529,3.6595,3.6596,3.6598,3.6598,3.6667,3.6669,3.667,0,0,0,0,0,0,0,0,0,0,0,0,0,3.6423,3.6375,3.6455,3.6499,3.6503,3.6527,3.6528,3.6529,3.6595,3.6597,3.6598,3.6599,3.6667,3.6669,3.667,3.6655,0,0,3.6675,3.6676,0,0,0,0,0,0,0,0,3.6421,3.6426,3.6491,3.6496,3.6501,3.6554,3.6525,3.6571,3.6595,3.656,3.6598,3.66,3.6629,3.6633,3.6644,3.6658,3.6661,3.6675,3.6676,3.6677,3.6677,0,0,0,0,0,0,0,3.6417,3.6424,3.6483,3.6492,3.6498,3.6514,3.6523,3.6534,3.6586,3.6563,3.6568,3.6576,3.6631,3.6642,3.6646,3.6662,3.6675,3.6677,3.6678,3.6678,3.667,3.6669,0,0,0,0,0,0,3.6407,3.642,3.6481,3.6486,3.6463,3.6515,3.6524,3.6535,3.6586,3.6595,3.6575,3.6579,3.6639,3.6644,3.6649,3.6636,3.6677,3.6678,3.6679,3.6671,3.667,3.6668,0,0,0,0,0,0,3.6405,3.6412,3.6478,3.6454,3.6464,3.6515,3.6527,3.6536,3.6547,3.6595,3.6605,3.6577,3.664,3.6647,3.6654,3.664,3.6679,3.6681,3.6672,3.6671,3.6669,3.661,0,0,0,0,0,0,3.6403,3.6411,3.6406,3.6454,3.6465,3.6482,3.6526,3.6537,3.655,3.6556,3.6599,3.6608,3.6642,3.6651,3.6655,3.6643,3.6682,3.6674,3.6672,3.6669,3.6613,3.6606,3.66,0,0,0,0,0,3.6399,3.6385,3.6405,3.6412,3.646,3.6481,3.6488,3.6528,3.6549,3.6544,3.6576,3.6606,3.664,3.6651,3.6657,3.6644,3.6675,3.6672,3.667,3.6616,3.6608,3.66,0,0,0,0,0,0,3.6332,3.6392,3.6415,3.6416,3.6443,3.6493,3.6488,3.6517,3.6538,3.6543,3.6591,3.66,3.6602,3.6624,3.6635,3.6633,3.6662,3.666,3.6619,3.6612,3.6605,3.6601,3.6683,0,0,0,0,0,3.6318,3.6331,3.6382,3.6378,3.639,3.6437,3.6447,3.6477,3.6506,3.6518,3.6549,3.6576,3.6594,3.6603,3.6621,3.6616,3.6628,3.661,3.6604,3.6598,3.6597,3.6598,3.6591,3.666,3.666,3.666,0,0,3.6287,3.6322,3.6327,3.6365,3.639,3.6402,3.6446,3.6456,3.6466,3.6519,3.6529,3.6553,3.6586,3.6588,3.659,3.6605,3.658,3.6595,3.659,3.6592,3.6594,3.6588,3.6582,3.6658,3.6658,3.6658,0,0,3.6239,3.6266,3.6267,3.6291,3.6329,3.636,3.636,3.6405,3.6424,3.6435,3.6475,3.6487,3.6515,3.6538,3.6553,3.6515,3.6545,3.6519,3.6486,3.6486,3.6481,3.6476,3.6465,3.646,3.6517,3.6517,3.6517,0,3.6196,3.6218,3.6263,3.6272,3.6288,3.6338,3.634,3.6361,3.6401,3.6411,3.6428,3.6466,3.6492,3.6501,3.6492,3.6502,3.6504,3.6515,3.6478,3.6474,3.6471,3.646,3.6455,3.6514,3.6514,3.6515,3.6515,0,3.6165,3.6179,3.6175,3.6216,3.6231,3.6236,3.6281,3.6292,3.6319,3.6349,3.636,3.6393,3.642,3.6423,3.6449,3.6436,3.6445,3.6469,3.65,3.646,3.6451,3.6447,3.6509,3.6511,3.6512,3.6512,0,0,3.6076,3.6143,3.6141,3.6161,3.6207,3.6218,3.6226,3.6254,3.6262,3.6289,3.6297,3.632,3.6344,3.6361,3.639,3.639,3.6361,3.6415,3.6417,3.6406,3.6351,3.6333,3.6328,3.6381,3.638,3.638,3.6349,0,3.6037,3.6055,3.6096,3.6101,3.6116,3.6164,3.6171,3.62,3.6228,3.6244,3.6274,3.6291,3.6319,3.633,3.6333,3.6364,3.6351,3.6367,3.6389,3.639,3.6381,3.6323,3.6304,3.6273,3.6345,3.6344,3.6344,0,3.5993,3.602,3.6027,3.6074,3.6082,3.6087,3.6118,3.6132,3.6166,3.6186,3.6206,3.6239,3.625,3.6277,3.6293,3.6303,3.6314,3.6331,3.6331,3.6336,3.6365,3.6328,3.6264,3.626,3.6339,3.6339,3.6339,0,3.5931,3.5967,3.5977,3.5992,3.6047,3.605,3.6073,3.6108,3.6123,3.6149,3.6159,3.6185,3.6199,3.6218,3.6257,3.6273,3.6269,3.6299,3.6287,3.6286,3.6285,3.6285,3.6224,3.6289,3.6289,3.6289,3.629,0,3.5884,3.5886,3.595,3.5956,3.5961,3.6008,3.6012,3.6039,3.607,3.6082,3.6124,3.6134,3.6185,3.6201,3.6232,3.6241,3.6247,3.6264,3.6272,3.6261,3.6259,3.627,3.6274,3.6288,3.6289,3.6289,3.6289,0,3.5814,3.5857,3.5871,3.5923,3.5936,3.5937,3.5981,3.5989,3.602,3.6035,3.6041,3.6089,3.611,3.6151,3.6183,3.6204,3.6207,3.622,3.6196,3.6202,3.6188,3.6189,3.6134,3.6129,3.6195,3.6194,3.6194,0,3.5783,3.5787,3.5839,3.5851,3.5873,3.5891,3.5908,3.5954,3.5969,3.6009,3.6012,3.6037,3.606,3.6091,3.6129,3.6154,3.6169,3.6148,3.6173,3.6163,3.6171,3.6171,3.6173,3.6142,3.6141,3.6141,3.614,0,3.5722,3.5744,3.5766,3.5796,3.5815,3.584,3.5868,3.5875,3.5928,3.5942,3.5966,3.5983,3.6018,3.6042,3.6073,3.6096,3.6127,3.6132,3.6131,3.612,3.6107,3.6116,3.6183,3.6133,3.6134,3.6134,3.6135,3.6135,3.5672,3.5679,3.5718,3.5742,3.5768,3.5793,3.5804,3.5837,3.5858,3.5891,3.5916,3.5938,3.5973,3.6018,3.6039,3.6056,3.6071,3.6069,3.6068,3.6068,3.6064,3.6103,3.6062,3.6062,3.6062,3.6062,3.6063,0,3.5616,3.5644,3.5665,3.5704,3.5723,3.5752,3.5784,3.5798,3.5817,3.5848,3.587,3.5898,3.5922,3.5962,3.599,3.5996,3.6011,3.6002,3.6002,3.6008,3.6048,3.6047,3.5989,3.5989,3.5989,3.5989,3.5989,3.5989,3.5589,3.5603,3.5629,3.5656,3.5684,3.5707,3.5723,3.5747,3.5772,3.5801,3.5823,3.5849,3.5883,3.5914,3.5938,3.5949,3.5958,3.5945,3.596,3.5997,3.6004,3.6011,3.6011,3.5946,3.5946,3.5918,3.5918,3.5918]}]]